Home   Weather   Hallein   Past weeks

Flag for Austria Past Weather in Hallein, Salzburg, Austria — Yesterday and Last 2 Weeks

43 °F

Passing clouds.

Feels Like: 40 °F
Forecast: 38 / 49 °F
Wind: 5 mph from South

Location: Salzburg-Flughafen

Current Time: Oct 28, 2016 at 10:04:15 PM

Latest Report: Oct 28, 2016 at 9:20 PM

Visibility: 6 mi

Pressure: 30.54 "Hg

Humidity: 93%

Dew Point: 41 °F

Location of HalleinLocation

Past Weather in Hallein — Graph


Hallein Temperature Yesterday

Maximum temperature yesterday: 54 °F (at 1:50 PM)
Minimum temperature yesterday: 41 °F (at 10:50 PM)
Average temperature yesterday: 49 °F

High & Low Weather Summary for the Past Weeks

High68 °F (Oct 15, 12:50 PM)100% (Oct 13, 9:20 PM)30.57 "Hg (Oct 13, 9:20 PM)
Low32 °F (Oct 23, 2:50 AM)39% (Oct 23, 1:50 PM)29.71 "Hg (Oct 15, 3:50 AM)
Average50 °F84%30.11 "Hg
* Reported Oct 13 8:20 PM — Oct 28 8:50 PM, Hallein, Weather by CustomWeather, © 2016

Note: Actual official high and low records may vary slightly from our data, if they occured in-between our weather recording intervals... More about our weather records


Hallein Weather History for the Previous 24 Hours

Scroll right to see more
Time TempWeatherWind HumidityBarometerVisibility
8:50 PM
Fri, Oct 28
43 °FPassing clouds.2 mph93%30.54 "HgN/A
8:20 PM43 °FClear.5 mph93%30.54 "Hg10 mi
7:50 PM45 °FClear.1 mph87%30.54 "Hg10 mi
7:20 PM45 °FClear.2 mph93%30.54 "Hg10 mi
6:50 PM50 °FClear.2 mph82%30.54 "Hg10 mi
6:20 PM52 °FClear.3 mph77%30.51 "Hg10 mi
5:50 PM54 °FSunny.2 mph72%30.51 "Hg10 mi
5:20 PM54 °FPassing clouds.5 mph72%30.51 "HgN/A
4:50 PM57 °FPassing clouds.5 mph67%30.51 "HgN/A
4:20 PM57 °FPassing clouds.3 mph63%30.51 "HgN/A
3:50 PM57 °FPassing clouds.3 mph63%30.51 "HgN/A
3:20 PM57 °FPassing clouds.5 mph63%30.51 "HgN/A
2:50 PM57 °FPassing clouds.5 mph63%30.51 "HgN/A
2:20 PM57 °FPassing clouds.6 mph59%30.51 "HgN/A
1:50 PM55 °FPassing clouds.5 mph59%30.51 "HgN/A
1:20 PM55 °FSunny.1 mph59%30.51 "Hg10 mi
12:50 PM57 °FSunny.2 mph55%30.51 "Hg10 mi
12:20 PM55 °FSunny.2 mph59%30.54 "Hg10 mi
11:50 AM54 °FPassing clouds.3 mph63%30.54 "HgN/A
11:20 AM52 °FPassing clouds.3 mph67%30.54 "HgN/A
10:50 AM50 °FSunny.8 mph71%30.54 "Hg10 mi
10:20 AM48 °FSunny.8 mph76%30.54 "Hg10 mi
9:50 AM46 °FScattered clouds.8 mph82%30.54 "HgN/A
9:20 AM45 °FScattered clouds.7 mph81%30.54 "HgN/A
8:50 AM41 °FScattered clouds.6 mph93%30.54 "HgN/A
8:20 AM41 °FPassing clouds.8 mph93%30.54 "HgN/A
7:50 AM39 °FPassing clouds.7 mph93%30.54 "HgN/A
7:20 AM41 °FPassing clouds.8 mph93%30.51 "HgN/A
6:50 AM39 °FClear.7 mph93%30.51 "Hg10 mi
6:20 AM39 °FClear.7 mph93%30.51 "Hg5 mi
5:50 AM39 °FClear.6 mph93%30.54 "Hg5 mi
5:20 AM41 °FPassing clouds.7 mph93%30.54 "Hg6 mi
4:50 AM39 °FPassing clouds.5 mph100%30.54 "Hg5 mi
4:20 AM39 °FChilly.5 mph93%30.51 "Hg4 mi
3:50 AM39 °FPassing clouds.3 mph93%30.54 "Hg4 mi
3:20 AM36 °FSnow. Overcast.3 mph100%30.54 "Hg2 mi
2:50 AM37 °FChilly.2 mph93%30.54 "Hg4 mi
2:20 AM36 °FFog.3 mph100%30.54 "Hg3 mi
1:50 AM36 °FPassing clouds.5 mph100%30.54 "Hg4 mi
1:20 AM37 °FLight fog.5 mph100%30.54 "Hg0 mi
12:50 AM37 °FFog.1 mph100%30.57 "Hg1 mi
12:20 AM39 °FFog.2 mph100%30.57 "Hg4 mi
11:50 PM
Thu, Oct 27
41 °FSnow. Fog.1 mph93%30.57 "Hg3 mi
11:20 PM43 °FSnow. Overcast.5 mph93%30.57 "Hg5 mi
10:50 PM41 °FPassing clouds.3 mph93%30.57 "Hg4 mi
10:20 PM43 °FPassing clouds.2 mph93%30.57 "Hg4 mi
Weather by CustomWeather, © 2016

See weather overviewHow to use our weather pages